When you browse on this site, cookies collect data to enhance your experience and personalize the content and advertising you see.
Visit our Privacy Policy to learn more. By continuing to use the site, you agree to this use of cookies and data.
  • In Czech Republic
  • List of Countries
  • For 7 days
  • Water Temperature
  • Satellite Maps
  • Weather Map
  • Weather Widgets
  • user-avatar
    Login

    Hourly Weather Linz

    Today, 25 June, Tuesday

    Time Temperature Precipitation Wind Pressure Humidity
    00:00 +19°C° 0 mm 2 mps 739 mmHg 90%
    01:00 +18°C° 0 mm 2 mps 739 mmHg 88%
    02:00 +18°C° 0 mm 2 mps 738 mmHg 89%
    03:00 +17°C° 0 mm 2 mps 738 mmHg 89%
    04:00 +17°C° 0 mm 2 mps 738 mmHg 90%
    05:00 +18°C° 0 mm 2 mps 738 mmHg 87%
    06:00 +20°C° 0 mm 2 mps 738 mmHg 84%
    07:00 +21°C° 0 mm 2 mps 738 mmHg 80%
    08:00 +24°C° 0 mm 3 mps 738 mmHg 77%
    09:00 +26°C° 0 mm 3 mps 738 mmHg 73%
    10:00 +27°C° 0 mm 3 mps 738 mmHg 69%
    11:00 +29°C° 0 mm 3 mps 739 mmHg 66%
    12:00 +30°C° 0 mm 3 mps 739 mmHg 62%
    13:00 +31°C° 0 mm 3 mps 739 mmHg 59%
    14:00 +33°C° 0 mm 3 mps 739 mmHg 58%
    15:00 +33°C° 0 mm 3 mps 739 mmHg 57%
    16:00 +34°C° 0 mm 2 mps 738 mmHg 57%
    17:00 +31°C° 0 mm 2 mps 739 mmHg 63%
    18:00 +30°C° 0 mm 2 mps 739 mmHg 70%
    19:00 +28°C° 0 mm 2 mps 739 mmHg 77%
    20:00 +26°C° 0 mm 1 mps 739 mmHg 80%
    21:00 +25°C° 0 mm 1 mps 739 mmHg 83%
    22:00 +23°C° 0 mm 1 mps 740 mmHg 86%
    23:00 +22°C° 0 mm 1 mps 740 mmHg 87%

    Tomorrow, 26 June, Wednesday

    Time Temperature Precipitation Wind Pressure Humidity
    00:00 +22°C° 0 mm 1 mps 740 mmHg 87%
    01:00 +21°C° 0 mm 1 mps 740 mmHg 88%
    02:00 +21°C° 0 mm 1 mps 740 mmHg 88%
    03:00 +20°C° 0 mm 1 mps 739 mmHg 89%
    04:00 +20°C° 0 mm 1 mps 739 mmHg 89%
    05:00 +19°C° 0 mm 0 mps 740 mmHg 86%
    06:00 +21°C° 0 mm 0 mps 740 mmHg 83%
    07:00 +22°C° 0 mm 0 mps 740 mmHg 79%
    08:00 +24°C° 0 mm 0 mps 740 mmHg 75%
    09:00 +28°C° 0 mm 1 mps 740 mmHg 70%
    10:00 +29°C° 0 mm 1 mps 740 mmHg 66%
    11:00 +30°C° 0 mm 1 mps 740 mmHg 62%
    12:00 +32°C° 0 mm 1 mps 740 mmHg 58%
    13:00 +33°C° 0 mm 1 mps 740 mmHg 55%
    14:00 +33°C° 0 mm 1 mps 740 mmHg 54%
    15:00 +33°C° 0 mm 1 mps 739 mmHg 53%
    16:00 +33°C° 0 mm 1 mps 739 mmHg 51%
    17:00 +32°C° 0 mm 1 mps 739 mmHg 58%
    18:00 +31°C° 0 mm 1 mps 739 mmHg 64%
    19:00 +27°C° 0 mm 0 mps 739 mmHg 70%
    20:00 +28°C° 0 mm 1 mps 739 mmHg 71%
    21:00 +26°C° 0 mm 1 mps 739 mmHg 72%
    22:00 +25°C° 0 mm 1 mps 739 mmHg 73%
    23:00 +24°C° 0 mm 1 mps 739 mmHg 74%

    Day after tomorrow, 27 June, Thursday

    Time Temperature Precipitation Wind Pressure Humidity
    00:00 +24°C° 0 mm 1 mps 739 mmHg 75%
    01:00 +23°C° 0 mm 1 mps 739 mmHg 76%
    02:00 +23°C° 0 mm 1 mps 739 mmHg 78%
    03:00 +23°C° 0 mm 1 mps 738 mmHg 80%
    04:00 +22°C° 0 mm 1 mps 738 mmHg 83%
    05:00 +23°C° 0 mm 1 mps 738 mmHg 81%
    06:00 +25°C° 0 mm 1 mps 738 mmHg 79%
    07:00 +26°C° 0 mm 1 mps 738 mmHg 78%
    08:00 +27°C° 0 mm 1 mps 738 mmHg 75%
    09:00 +28°C° 0 mm 2 mps 738 mmHg 71%
    10:00 +30°C° 0 mm 2 mps 738 mmHg 68%
    11:00 +30°C° 0.9 mm 2 mps 738 mmHg 68%
    12:00 +31°C° 0.9 mm 3 mps 738 mmHg 68%
    13:00 +31°C° 0.9 mm 3 mps 738 mmHg 68%
    14:00 +31°C° 1.5 mm 3 mps 738 mmHg 70%
    15:00 +30°C° 1.5 mm 3 mps 738 mmHg 72%
    16:00 +30°C° 1.5 mm 2 mps 737 mmHg 74%
    17:00 +29°C° 0.4 mm 2 mps 737 mmHg 75%
    18:00 +27°C° 0.4 mm 2 mps 737 mmHg 77%
    19:00 +26°C° 0.4 mm 2 mps 737 mmHg 79%
    20:00 +24°C° 0 mm 2 mps 738 mmHg 77%
    21:00 +22°C° 0 mm 1 mps 738 mmHg 75%
    22:00 +20°C° 0 mm 1 mps 738 mmHg 73%
    23:00 +19°C° 0 mm 1 mps 738 mmHg 74%

    28 June, Friday

    Time Temperature Precipitation Wind Pressure Humidity
    00:00 +18°C° 0 mm 1 mps 738 mmHg 74%
    01:00 +16°C° 0 mm 1 mps 738 mmHg 74%
    02:00 +15°C° 0 mm 1 mps 738 mmHg 75%
    03:00 +14°C° 0 mm 1 mps 738 mmHg 77%
    04:00 +13°C° 0 mm 0 mps 738 mmHg 78%
    05:00 +14°C° 0 mm 0 mps 738 mmHg 76%
    06:00 +16°C° 0 mm 0 mps 738 mmHg 75%
    07:00 +17°C° 0 mm 0 mps 738 mmHg 73%
    08:00 +20°C° 0 mm 1 mps 738 mmHg 68%
    09:00 +22°C° 0 mm 1 mps 738 mmHg 63%
    10:00 +24°C° 0 mm 1 mps 738 mmHg 58%
    11:00 +25°C° 0 mm 1 mps 737 mmHg 55%
    12:00 +25°C° 0 mm 1 mps 737 mmHg 53%
    13:00 +26°C° 0 mm 2 mps 737 mmHg 50%
    14:00 +27°C° 0 mm 2 mps 737 mmHg 51%
    15:00 +27°C° 0 mm 2 mps 737 mmHg 51%
    16:00 +27°C° 0 mm 2 mps 737 mmHg 51%
    17:00 +26°C° 0 mm 2 mps 737 mmHg 57%
    18:00 +25°C° 0 mm 2 mps 737 mmHg 64%
    19:00 +23°C° 0 mm 1 mps 737 mmHg 70%
    20:00 +22°C° 0 mm 1 mps 737 mmHg 72%
    21:00 +20°C° 0 mm 1 mps 738 mmHg 75%
    22:00 +18°C° 0 mm 1 mps 738 mmHg 78%
    23:00 +16°C° 0 mm 1 mps 738 mmHg 79%

    29 June, Saturday

    Time Temperature Precipitation Wind Pressure Humidity
    00:00 +15°C° 0 mm 1 mps 738 mmHg 81%
    01:00 +15°C° 0 mm 1 mps 738 mmHg 83%
    02:00 +14°C° 0 mm 1 mps 738 mmHg 84%
    03:00 +14°C° 0 mm 1 mps 737 mmHg 86%
    04:00 +13°C° 0 mm 1 mps 737 mmHg 87%
    05:00 +15°C° 0 mm 1 mps 737 mmHg 83%
    06:00 +16°C° 0 mm 2 mps 737 mmHg 79%
    07:00 +18°C° 0 mm 2 mps 737 mmHg 75%
    08:00 +19°C° 0 mm 2 mps 737 mmHg 71%
    09:00 +21°C° 0 mm 3 mps 737 mmHg 66%
    10:00 +22°C° 0 mm 4 mps 737 mmHg 62%
    11:00 +23°C° 0 mm 4 mps 737 mmHg 59%
    12:00 +25°C° 0 mm 4 mps 737 mmHg 55%
    13:00 +26°C° 0 mm 5 mps 737 mmHg 52%
    14:00 +26°C° 0 mm 4 mps 736 mmHg 53%
    15:00 +26°C° 0 mm 4 mps 736 mmHg 54%
    16:00 +26°C° 0 mm 4 mps 736 mmHg 55%
    17:00 +25°C° 0 mm 4 mps 736 mmHg 60%
    18:00 +22°C° 0 mm 4 mps 736 mmHg 66%
    19:00 +21°C° 0 mm 3 mps 736 mmHg 71%
    20:00 +19°C° 0 mm 3 mps 736 mmHg 73%
    21:00 +18°C° 0 mm 3 mps 736 mmHg 74%
    22:00 +16°C° 0 mm 2 mps 736 mmHg 76%
    23:00 +16°C° 0 mm 2 mps 736 mmHg 78%

    30 June, Sunday

    Time Temperature Precipitation Wind Pressure Humidity
    00:00 +16°C° 0 mm 2 mps 736 mmHg 80%
    01:00 +15°C° 0 mm 2 mps 736 mmHg 81%
    02:00 +15°C° 0 mm 2 mps 736 mmHg 81%
    03:00 +15°C° 0 mm 2 mps 736 mmHg 81%
    04:00 +14°C° 0 mm 2 mps 736 mmHg 81%
    05:00 +16°C° 0 mm 2 mps 736 mmHg 78%
    06:00 +17°C° 0 mm 2 mps 736 mmHg 76%
    07:00 +19°C° 0 mm 2 mps 736 mmHg 74%
    08:00 +20°C° 0 mm 2 mps 736 mmHg 70%
    09:00 +23°C° 0 mm 2 mps 736 mmHg 66%
    10:00 +25°C° 0 mm 2 mps 736 mmHg 62%
    11:00 +27°C° 0 mm 2 mps 735 mmHg 61%
    12:00 +28°C° 0 mm 1 mps 735 mmHg 59%
    13:00 +30°C° 0 mm 1 mps 735 mmHg 57%
    14:00 +30°C° 0 mm 1 mps 735 mmHg 57%
    15:00 +31°C° 0 mm 1 mps 735 mmHg 56%
    16:00 +31°C° 0 mm 1 mps 734 mmHg 56%
    17:00 +30°C° 0 mm 1 mps 734 mmHg 63%
    18:00 +29°C° 0 mm 1 mps 734 mmHg 71%
    19:00 +28°C° 0 mm 1 mps 734 mmHg 78%
    20:00 +26°C° 0 mm 1 mps 735 mmHg 80%
    21:00 +25°C° 0 mm 1 mps 735 mmHg 82%
    22:00 +23°C° 0 mm 1 mps 735 mmHg 84%
    23:00 +23°C° 0 mm 1 mps 735 mmHg 84%
    Show more